SCP
0 0 0 0 0 0 0 0 0 0 0 0 0 0 0 0 0 0 0 0 0 0 0 0 0 0 0 0 0 0 0 0 0 0 0 0 0 0 0 0 0 0 0
0 0 0 0 0 0 0 0 0 0 0 0 0 -0 0 0 0 0 0 0 0 0 0 0 0 0 0 0 0 0 0 0 0 0 0 0 0 0 0 0 0 0 0
0 0 0 0 0 0 0 0 -0 0 0 0 -0 0 0 0 0 0 0 0 0 0 0 0 0 0 0 0 0 0 0 0 0 0 0 0 0 0 0 0 0 0 0
0 0 0 0 0 0 0 0 0 0 0 0 0 0 1 0 0 0 0 0 0 0 0 0 0 0 0 0 0 0 0 0 0 0 0 0 0 0 0 0 0 0 0
1 0 0 0 0 0 0 0 0 0 0 0 0 1 1 1 0 0 0 0 0 0 0 0 0 0 0 0 0 0 0 0 0 0 0 0 0 0 0 0 0 0 0
1 0 0 0 0 0 0 0 0 0 0 0 1 1 1 1 0 0 0 0 0 0 0 0 0 0 0 0 0 0 0 0 0 0 0 0 0 0 0 0 0 0 0
1 0 0 0 0 0 0 0 0 0 0 0 1 1 1 0 0 0 0 0 0 0 0 0 0 0 0 0 0 0 0 0 0 0 0 0 0 0 0 0 0 0 0
0 1 0 1 0 0 0 0 0 0 0 0 0 0 0 0 0 0 0 0 0 0 0 0 0 0 0 0 0 0 0 0 0 0 0 0 0 0 0 0 0 0 0
0 1 0 1 0 0 0 1 0 0 0 1 0 0 0 0 0 0 0 0 0 0 0 0 0 0 0 0 0 0 0 0 0 0 0 0 0 0 0 0 0 0 0
1 2 1 1 0 0 0 1 1 1 0 0 1 0 0 0 0 0 0 0 0 0 0 0 0 0 0 0 0 0 0 0 0 0 0 0 0 0 0 0 0 0 0
2 2 1 2 1 1 1 1 1 1 1 0 0 1 0 0 0 0 0 0 0 0 0 0 0 0 0 0 0 0 0 0 0 0 0 0 0 0 0 0 0 0 0
2 2 2 1 3 1 1 1 1 1 1 0 0 0 0 0 0 0 0 0 0 0 0 0 0 0 0 0 0 0 0 0 0 0 0 0 0 0 0 0 0 0 0
1 2 1 0 3 1 1 1 1 1 0 0 0 0 0 0 0 0 0 0 0 0 0 0 0 0 0 0 0 0 0 0 0 0 0 0 0 0 0 0 0 0 0
2 1 1 1 2 1 2 2 1 0 0 0 0 0 0 0 0 0 0 0 0 0 0 0 0 0 0 0 0 0 0 0 0 0 0 0 0 0 0 0 0 0 0
2 2 1 1 2 1 2 1 0 0 0 0 0 0 0 0 0 0 0 0 0 0 0 0 0 0 0 0 0 0 0 0 0 0 0 0 0 0 0 0 0 0 -0
0 0 0 1 2 2 0 0 0 0 0 0 0 0 0 0 0 0 0 0 0 0 0 0 0 0 0 0 0 0 0 0 0 0 0 0 0 0 0 0 0 0 0
0 0 0 0 0 0 0 0 0 0 0 0 0 0 0 0 0 0 0 0 0 0 0 0 0 0 0 0 0 0 0 0 0 0 0 0 0 0 0 0 0 0 0
0 0 0 0 0 0 0 0 0 0 0 0 0 0 0 0 0 0 0 0 0 0 0 0 0 0 0 0 0 0 0 0 0 0 0 0 0 0 0 0 0 0 0
0 0 0 0 0 0 0 0 0 0 0 0 0 0 0 0 0 0 0 0 0 0 0 0 0 0 0 0 0 0 0 0 0 0 0 0 0 0 0 0 0 0 0
0 0 0 0 0 0 0 0 0 0 0 0 0 0 0 0 0 0 0 0 0 0 0 0 0 0 0 0 0 0 0 0 0 0 0 0 0 0 0 0 0 0 0
0 0 0 0 0 0 0 0 0 0 0 0 0 0 0 0 0 0 0 0 0 0 0 0 0 0 0 0 0 0 0 0 0 0 0 0 0 0 0 0 0 0 0
0 0 0 0 0 0 0 0 0 0 0 0 0 0 0 0 0 0 -0 -0 -0 0 0 0 0 0 0 0 0 0 0 0 0 0 0 0 0 0 0 0 0 0 0
0 0 0 0 0 0 0 0 0 0 0 0 0 0 0 0 -0 -0 -0 -0 -0 -0 0 -0 -0 0 0 0 0 0 0 0 0 0 0 0 0 0 0 0 0 0 0
0 0 0 0 0 0 0 -0 -0 0 0 0 0 0 0 0 -0 -0 -0 -0 0 0 0 -0 -0 -0 0 0 0 0 0 0 0 0 0 0 0 0 0 0 0 0 0
0 0 0 0 0 0 0 0 0 0 0 0 0 0 0 0 0 -0 -0 -0 0 -0 0 0 -0 -0 0 -0 0 0 0 0 0 0 0 0 0 0 0 0 0 0 0
0 0 0 0 0 0 0 0 0 0 0 0 0 0 0 0 -0 -0 -0 0 -0 -0 -0 -0 -0 -0 -0 0 0 0 0 0 0 0 0 0 0 0 0 0 0 0 -0
Wind_Speed_500mb
48 42 42 34 27 35 33 27 21 17 8 18 17 5 8 7 12 12 8 10 16 20 22 24 27 26 29 27 29 34 34 37 32 32 36 40 38 41 48 49 47 42 41
54 45 40 36 20 19 30 16 22 14 14 13 10 20 12 20 11 11 10 14 19 12 17 22 23 27 24 24 27 29 30 37 37 40 45 47 49 53 58 59 48 43 42
60 53 45 40 28 22 24 20 16 15 19 21 22 17 19 21 21 14 18 17 18 16 18 25 23 24 23 23 23 28 37 41 42 48 55 53 57 60 59 48 44 44 44
65 56 51 48 36 32 27 32 28 33 29 21 18 20 36 22 15 17 19 16 17 21 14 19 17 20 26 22 30 39 41 47 52 54 57 61 61 55 49 45 42 43 44
74 59 58 59 47 36 48 43 39 35 25 26 11 21 30 18 11 12 15 15 23 22 22 23 11 13 17 28 33 35 44 49 53 61 62 60 54 50 45 44 44 44 44
80 67 59 61 54 48 52 54 48 41 28 22 22 23 19 13 11 13 15 17 10 14 20 5 13 20 23 28 30 35 38 48 58 62 63 56 54 47 45 46 43 46 44
68 77 66 65 59 63 56 49 40 41 38 28 24 28 19 12 11 18 14 11 6 2 8 13 13 26 31 30 41 41 46 52 58 62 56 58 50 48 47 48 44 44 44
65 77 75 72 63 66 61 51 44 42 36 36 27 28 19 12 14 15 9 5 15 14 9 10 15 18 31 38 38 48 49 53 57 55 56 57 56 60 50 46 45 43 44
75 69 79 79 69 67 63 55 47 46 46 36 31 31 10 10 22 16 9 5 9 13 12 12 8 20 30 31 35 42 50 53 50 51 59 64 65 63 54 47 45 45 43
76 67 71 74 65 70 58 59 51 51 43 45 35 30 34 17 16 14 15 7 8 13 15 16 17 23 19 25 38 48 50 52 48 54 62 66 71 66 53 45 46 45 42
84 74 68 77 70 68 57 58 54 49 48 37 35 30 26 23 17 17 17 18 15 16 6 13 18 14 17 29 44 47 49 41 50 56 59 67 77 62 48 41 42 45 46
73 73 59 76 74 63 59 54 55 45 52 41 24 35 29 24 17 14 17 13 16 24 20 16 18 15 22 39 43 47 40 43 51 50 54 65 77 61 48 35 39 44 43
71 73 75 76 75 68 68 55 57 48 51 48 41 39 30 18 23 18 16 20 33 36 25 18 2 15 33 40 42 44 43 43 44 48 50 67 75 67 47 36 34 40 46
65 78 71 86 85 68 69 62 57 55 55 46 47 43 34 24 26 23 18 25 35 38 17 7 3 26 37 39 47 43 41 41 43 40 54 68 73 60 55 41 42 47 48
69 72 71 76 83 74 68 68 64 60 53 54 49 43 31 22 21 15 12 17 30 27 18 9 13 22 29 36 41 38 34 43 42 44 61 67 70 59 50 49 51 52 55
64 65 63 64 79 77 72 61 63 57 54 51 46 36 28 23 16 14 12 13 19 27 18 15 14 12 26 38 40 27 35 42 35 55 59 64 66 57 57 58 51 49 47
44 56 57 47 60 84 65 58 62 55 53 51 42 33 30 24 21 19 16 15 15 14 25 25 3 11 28 38 24 25 27 36 36 49 50 56 60 59 56 55 52 49 46
35 37 40 40 40 47 49 67 62 56 54 50 45 41 36 28 23 23 23 26 22 24 16 14 5 21 32 23 16 23 27 25 35 47 46 54 59 67 63 55 53 55 48
38 39 40 35 61 61 62 52 63 58 55 53 48 43 39 34 34 32 33 32 26 18 12 5 13 22 22 25 28 27 26 34 37 32 48 56 67 72 83 97 71 61 56
32 45 63 57 69 67 66 71 63 63 55 49 46 40 43 38 35 34 23 21 19 15 11 6 15 28 31 34 34 35 41 43 42 40 39 53 57 64 67 77 90 74 59
30 38 47 74 83 74 72 75 66 59 62 61 56 54 48 35 19 21 24 22 15 15 15 20 31 42 41 45 44 38 47 48 52 43 45 57 62 65 68 67 91 83 72
55 60 62 39 35 29 36 39 55 68 66 70 64 47 36 24 35 31 29 26 24 20 30 32 45 49 46 37 35 37 51 56 55 50 45 46 54 58 63 63 73 94 77
45 48 54 49 57 46 65 72 75 71 72 63 53 40 33 45 37 36 33 32 33 35 39 48 51 53 47 35 32 34 46 45 49 51 48 49 48 53 53 55 65 93 85
50 55 52 54 68 75 81 78 81 81 72 58 44 45 51 49 43 37 37 40 42 47 51 55 57 52 52 41 34 38 34 37 46 56 61 62 56 56 57 58 62 80 94
59 59 58 60 65 78 82 83 84 69 57 53 54 52 49 48 42 34 36 43 50 47 46 46 50 57 51 49 33 33 41 40 48 51 60 55 62 51 55 60 59 63 93
59 59 64 66 73 88 87 85 80 73 71 71 63 54 48 46 43 39 39 47 52 45 33 37 40 47 52 40 33 36 39 52 52 45 59 55 57 57 45 54 56 56 84
Wind_Direction_500mb
209 220 219 216 227 231 224 222 221 198 184 208 215 196 282 277 242 281 312 343 341 345 339 354 357 2 4 1 7 1 356 359 347 337 335 331 324 323 324 325 323 316 310
212 216 220 211 212 214 207 200 206 205 220 260 262 194 196 270 282 275 302 331 336 354 338 356 357 358 5 4 360 352 346 343 337 337 331 323 318 320 322 320 322 316 308
207 210 219 214 212 184 186 191 195 221 231 252 184 168 242 238 253 282 332 326 333 324 347 339 352 4 0 360 346 338 337 336 334 331 328 326 323 322 321 329 328 324 322
203 209 213 210 213 214 203 197 203 221 235 192 187 226 232 227 261 279 308 322 332 329 343 346 359 356 341 334 329 332 327 331 327 326 325 324 322 322 325 333 331 327 325
202 208 213 207 204 211 199 200 207 218 228 191 235 216 209 201 252 277 310 318 327 330 332 335 353 334 316 324 325 328 330 324 325 327 328 326 328 333 337 333 330 330 327
206 206 210 201 204 206 211 216 222 209 198 171 214 209 220 256 282 276 284 304 316 333 334 350 311 321 320 320 323 325 324 326 329 328 330 336 337 341 339 334 332 331 325
215 211 206 205 205 208 216 217 205 201 202 214 210 198 188 213 264 278 284 312 135 306 275 248 278 306 306 322 321 322 327 329 328 332 340 347 354 349 343 338 334 329 331
220 218 208 204 206 207 211 213 202 201 206 214 198 196 181 215 215 243 226 212 197 248 224 237 282 311 316 324 329 330 326 326 333 343 355 358 359 353 344 336 335 329 333
220 222 212 205 206 210 211 207 203 206 205 207 216 226 188 198 204 200 239 202 199 231 235 278 311 320 316 323 329 327 326 331 339 358 356 359 360 355 347 341 338 334 330
215 220 216 208 211 213 210 202 205 212 208 211 212 224 230 210 183 177 198 211 194 209 236 252 285 304 318 318 330 328 327 333 357 358 354 358 357 355 350 351 354 343 338
210 218 217 208 212 218 217 202 209 210 209 203 213 215 221 228 222 203 180 192 182 178 244 250 280 276 292 319 328 337 341 350 360 353 351 354 354 355 352 357 359 -0 358
210 208 230 212 213 210 202 202 212 211 206 196 195 202 205 197 203 197 153 167 185 152 180 205 226 269 320 333 342 351 4 1 355 347 348 352 355 356 357 356 355 355 353
228 206 209 218 209 203 204 205 204 199 200 200 198 194 200 220 212 204 185 135 167 164 152 171 209 339 339 350 360 8 15 0 348 345 349 356 359 358 1 4 352 348 348
220 216 206 212 205 202 203 205 199 194 197 197 199 204 209 216 219 217 202 168 143 162 164 188 3 352 353 2 3 7 3 359 356 349 356 357 -0 0 7 4 353 344 344
233 229 220 220 207 205 200 199 199 193 194 199 200 206 214 212 202 201 187 166 164 147 111 65 22 14 355 356 356 360 8 7 356 356 359 360 1 0 359 355 350 345 343
243 234 223 221 216 193 191 202 197 187 189 191 198 200 198 183 174 166 153 158 165 166 133 69 80 354 347 345 353 12 12 9 8 8 3 1 359 357 351 346 348 345 348
244 240 240 213 202 198 185 194 197 187 188 186 185 189 175 167 162 136 128 122 145 132 119 106 125 341 329 347 19 19 24 32 15 8 353 358 1 358 6 10 5 355 353
236 240 237 209 204 163 199 209 201 187 184 177 174 172 165 150 136 121 120 123 125 111 138 134 54 339 346 12 30 18 18 24 -0 357 6 20 34 36 27 12 5 1 8
227 230 218 204 190 181 181 195 198 179 175 173 165 164 144 135 125 119 110 116 129 125 120 93 15 360 14 26 29 51 39 28 9 33 46 55 47 41 37 34 31 25 22
218 217 192 184 181 190 194 194 196 178 165 158 154 146 132 125 116 112 93 125 134 122 119 52 46 39 45 43 41 49 49 30 44 55 66 39 35 29 29 25 29 27 25
194 205 201 185 184 191 189 180 174 165 158 150 146 137 134 127 106 117 129 132 123 109 103 89 65 53 52 42 48 62 54 59 55 62 45 48 42 47 39 37 31 25 24
158 151 158 181 197 181 199 186 168 162 156 151 145 139 125 129 129 133 124 122 111 111 99 83 65 56 56 51 59 60 61 60 51 47 46 49 52 47 40 32 31 29 25
184 172 173 170 155 170 201 176 168 164 158 149 145 141 145 133 134 133 125 116 110 99 90 71 60 60 57 54 59 68 68 63 49 46 47 47 44 34 34 30 34 30 26
162 161 171 175 176 175 181 174 166 158 154 155 152 141 139 137 133 132 126 117 101 88 77 68 55 63 58 57 57 73 70 62 60 42 29 30 33 44 36 38 34 31 25
166 166 171 172 173 167 169 170 163 159 167 154 133 139 142 141 136 136 127 110 95 87 78 67 57 53 50 52 66 73 64 59 47 34 31 31 23 29 31 35 31 28 22
169 167 169 174 178 168 170 169 179 174 148 142 142 140 142 136 130 130 124 110 99 92 82 73 60 47 43 47 53 66 55 52 45 36 31 24 22 18 22 28 33 34 24
Wind_Speed_850mb
48 42 42 34 27 35 33 27 21 17 8 18 17 5 8 7 12 12 8 10 16 20 22 24 27 26 29 27 29 34 34 37 32 32 36 40 38 41 48 49 47 42 41
54 45 40 36 20 19 30 16 22 14 14 13 10 20 12 20 11 11 10 14 19 12 17 22 23 27 24 24 27 29 30 37 37 40 45 47 49 53 58 59 48 43 42
60 53 45 40 28 22 24 20 16 15 19 21 22 17 19 21 21 14 18 17 18 16 18 25 23 24 23 23 23 28 37 41 42 48 55 53 57 60 59 48 44 44 44
65 56 51 48 36 32 27 32 28 33 29 21 18 20 36 22 15 17 19 16 17 21 14 19 17 20 26 22 30 39 41 47 52 54 57 61 61 55 49 45 42 43 44
74 59 58 59 47 36 48 43 39 35 25 26 11 21 30 18 11 12 15 15 23 22 22 23 11 13 17 28 33 35 44 49 53 61 62 60 54 50 45 44 44 44 44
80 67 59 61 54 48 52 54 48 41 28 22 22 23 19 13 11 13 15 17 10 14 20 5 13 20 23 28 30 35 38 48 58 62 63 56 54 47 45 46 43 46 44
68 77 66 65 59 63 56 49 40 41 38 28 24 28 19 12 11 18 14 11 6 2 8 13 13 26 31 30 41 41 46 52 58 62 56 58 50 48 47 48 44 44 44
65 77 75 72 63 66 61 51 44 42 36 36 27 28 19 12 14 15 9 5 15 14 9 10 15 18 31 38 38 48 49 53 57 55 56 57 56 60 50 46 45 43 44
75 69 79 79 69 67 63 55 47 46 46 36 31 31 10 10 22 16 9 5 9 13 12 12 8 20 30 31 35 42 50 53 50 51 59 64 65 63 54 47 45 45 43
76 67 71 74 65 70 58 59 51 51 43 45 35 30 34 17 16 14 15 7 8 13 15 16 17 23 19 25 38 48 50 52 48 54 62 66 71 66 53 45 46 45 42
84 74 68 77 70 68 57 58 54 49 48 37 35 30 26 23 17 17 17 18 15 16 6 13 18 14 17 29 44 47 49 41 50 56 59 67 77 62 48 41 42 45 46
73 73 59 76 74 63 59 54 55 45 52 41 24 35 29 24 17 14 17 13 16 24 20 16 18 15 22 39 43 47 40 43 51 50 54 65 77 61 48 35 39 44 43
71 73 75 76 75 68 68 55 57 48 51 48 41 39 30 18 23 18 16 20 33 36 25 18 2 15 33 40 42 44 43 43 44 48 50 67 75 67 47 36 34 40 46
65 78 71 86 85 68 69 62 57 55 55 46 47 43 34 24 26 23 18 25 35 38 17 7 3 26 37 39 47 43 41 41 43 40 54 68 73 60 55 41 42 47 48
69 72 71 76 83 74 68 68 64 60 53 54 49 43 31 22 21 15 12 17 30 27 18 9 13 22 29 36 41 38 34 43 42 44 61 67 70 59 50 49 51 52 55
64 65 63 64 79 77 72 61 63 57 54 51 46 36 28 23 16 14 12 13 19 27 18 15 14 12 26 38 40 27 35 42 35 55 59 64 66 57 57 58 51 49 47
44 56 57 47 60 84 65 58 62 55 53 51 42 33 30 24 21 19 16 15 15 14 25 25 3 11 28 38 24 25 27 36 36 49 50 56 60 59 56 55 52 49 46
35 37 40 40 40 47 49 67 62 56 54 50 45 41 36 28 23 23 23 26 22 24 16 14 5 21 32 23 16 23 27 25 35 47 46 54 59 67 63 55 53 55 48
38 39 40 35 61 61 62 52 63 58 55 53 48 43 39 34 34 32 33 32 26 18 12 5 13 22 22 25 28 27 26 34 37 32 48 56 67 72 83 97 71 61 56
32 45 63 57 69 67 66 71 63 63 55 49 46 40 43 38 35 34 23 21 19 15 11 6 15 28 31 34 34 35 41 43 42 40 39 53 57 64 67 77 90 74 59
30 38 47 74 83 74 72 75 66 59 62 61 56 54 48 35 19 21 24 22 15 15 15 20 31 42 41 45 44 38 47 48 52 43 45 57 62 65 68 67 91 83 72
55 60 62 39 35 29 36 39 55 68 66 70 64 47 36 24 35 31 29 26 24 20 30 32 45 49 46 37 35 37 51 56 55 50 45 46 54 58 63 63 73 94 77
45 48 54 49 57 46 65 72 75 71 72 63 53 40 33 45 37 36 33 32 33 35 39 48 51 53 47 35 32 34 46 45 49 51 48 49 48 53 53 55 65 93 85
50 55 52 54 68 75 81 78 81 81 72 58 44 45 51 49 43 37 37 40 42 47 51 55 57 52 52 41 34 38 34 37 46 56 61 62 56 56 57 58 62 80 94
59 59 58 60 65 78 82 83 84 69 57 53 54 52 49 48 42 34 36 43 50 47 46 46 50 57 51 49 33 33 41 40 48 51 60 55 62 51 55 60 59 63 93
59 59 64 66 73 88 87 85 80 73 71 71 63 54 48 46 43 39 39 47 52 45 33 37 40 47 52 40 33 36 39 52 52 45 59 55 57 57 45 54 56 56 84
Wind_Direction_850mb
209 220 219 216 227 231 224 222 221 198 184 208 215 196 282 277 242 281 312 343 341 345 339 354 357 2 4 1 7 1 356 359 347 337 335 331 324 323 324 325 323 316 310
212 216 220 211 212 214 207 200 206 205 220 260 262 194 196 270 282 275 302 331 336 354 338 356 357 358 5 4 360 352 346 343 337 337 331 323 318 320 322 320 322 316 308
207 210 219 214 212 184 186 191 195 221 231 252 184 168 242 238 253 282 332 326 333 324 347 339 352 4 0 360 346 338 337 336 334 331 328 326 323 322 321 329 328 324 322
203 209 213 210 213 214 203 197 203 221 235 192 187 226 232 227 261 279 308 322 332 329 343 346 359 356 341 334 329 332 327 331 327 326 325 324 322 322 325 333 331 327 325
202 208 213 207 204 211 199 200 207 218 228 191 235 216 209 201 252 277 310 318 327 330 332 335 353 334 316 324 325 328 330 324 325 327 328 326 328 333 337 333 330 330 327
206 206 210 201 204 206 211 216 222 209 198 171 214 209 220 256 282 276 284 304 316 333 334 350 311 321 320 320 323 325 324 326 329 328 330 336 337 341 339 334 332 331 325
215 211 206 205 205 208 216 217 205 201 202 214 210 198 188 213 264 278 284 312 135 306 275 248 278 306 306 322 321 322 327 329 328 332 340 347 354 349 343 338 334 329 331
220 218 208 204 206 207 211 213 202 201 206 214 198 196 181 215 215 243 226 212 197 248 224 237 282 311 316 324 329 330 326 326 333 343 355 358 359 353 344 336 335 329 333
220 222 212 205 206 210 211 207 203 206 205 207 216 226 188 198 204 200 239 202 199 231 235 278 311 320 316 323 329 327 326 331 339 358 356 359 360 355 347 341 338 334 330
215 220 216 208 211 213 210 202 205 212 208 211 212 224 230 210 183 177 198 211 194 209 236 252 285 304 318 318 330 328 327 333 357 358 354 358 357 355 350 351 354 343 338
210 218 217 208 212 218 217 202 209 210 209 203 213 215 221 228 222 203 180 192 182 178 244 250 280 276 292 319 328 337 341 350 360 353 351 354 354 355 352 357 359 -0 358
210 208 230 212 213 210 202 202 212 211 206 196 195 202 205 197 203 197 153 167 185 152 180 205 226 269 320 333 342 351 4 1 355 347 348 352 355 356 357 356 355 355 353
228 206 209 218 209 203 204 205 204 199 200 200 198 194 200 220 212 204 185 135 167 164 152 171 209 339 339 350 360 8 15 0 348 345 349 356 359 358 1 4 352 348 348
220 216 206 212 205 202 203 205 199 194 197 197 199 204 209 216 219 217 202 168 143 162 164 188 3 352 353 2 3 7 3 359 356 349 356 357 -0 0 7 4 353 344 344
233 229 220 220 207 205 200 199 199 193 194 199 200 206 214 212 202 201 187 166 164 147 111 65 22 14 355 356 356 360 8 7 356 356 359 360 1 0 359 355 350 345 343
243 234 223 221 216 193 191 202 197 187 189 191 198 200 198 183 174 166 153 158 165 166 133 69 80 354 347 345 353 12 12 9 8 8 3 1 359 357 351 346 348 345 348
244 240 240 213 202 198 185 194 197 187 188 186 185 189 175 167 162 136 128 122 145 132 119 106 125 341 329 347 19 19 24 32 15 8 353 358 1 358 6 10 5 355 353
236 240 237 209 204 163 199 209 201 187 184 177 174 172 165 150 136 121 120 123 125 111 138 134 54 339 346 12 30 18 18 24 -0 357 6 20 34 36 27 12 5 1 8
227 230 218 204 190 181 181 195 198 179 175 173 165 164 144 135 125 119 110 116 129 125 120 93 15 360 14 26 29 51 39 28 9 33 46 55 47 41 37 34 31 25 22
218 217 192 184 181 190 194 194 196 178 165 158 154 146 132 125 116 112 93 125 134 122 119 52 46 39 45 43 41 49 49 30 44 55 66 39 35 29 29 25 29 27 25
194 205 201 185 184 191 189 180 174 165 158 150 146 137 134 127 106 117 129 132 123 109 103 89 65 53 52 42 48 62 54 59 55 62 45 48 42 47 39 37 31 25 24
158 151 158 181 197 181 199 186 168 162 156 151 145 139 125 129 129 133 124 122 111 111 99 83 65 56 56 51 59 60 61 60 51 47 46 49 52 47 40 32 31 29 25
184 172 173 170 155 170 201 176 168 164 158 149 145 141 145 133 134 133 125 116 110 99 90 71 60 60 57 54 59 68 68 63 49 46 47 47 44 34 34 30 34 30 26
162 161 171 175 176 175 181 174 166 158 154 155 152 141 139 137 133 132 126 117 101 88 77 68 55 63 58 57 57 73 70 62 60 42 29 30 33 44 36 38 34 31 25
166 166 171 172 173 167 169 170 163 159 167 154 133 139 142 141 136 136 127 110 95 87 78 67 57 53 50 52 66 73 64 59 47 34 31 31 23 29 31 35 31 28 22
169 167 169 174 178 168 170 169 179 174 148 142 142 140 142 136 130 130 124 110 99 92 82 73 60 47 43 47 53 66 55 52 45 36 31 24 22 18 22 28 33 34 24